Location: *
(46.1833°N, 22.7667°E)
Time: 16:07:36
(UTC+00:00)

Cosmos 407 Rocket - Pass Details

Date: 17 September 2019
Orbit: 744 x 786 km, 74.0° (Epoch: 19 October)

Event Time Altitude Azimuth Distance (km) Brightness Sun altitude
Rises 18:49:07 0° 335° (NNW) 3,205 7.6 -22.6°
Reaches altitude 10° 18:51:30 10° 332° (NNW) 2,273 6.7 -22.9°
Maximum altitude 18:56:33 61° 253° (WSW) 846 3.8 -23.7°
Enters shadow 18:58:20 38° 191° (S) 1,125 4.1 -23.9°
